Hourly Weather Bolshie Karkaly

Today, 5 August, Thursday

Time Temperature Precipitation Wind Pressure Humidity
00:00 +27°C° 0 mm 5 mps 727 mmHg 34%
01:00 +26°C° 0 mm 5 mps 727 mmHg 36%
02:00 +25°C° 0 mm 4 mps 727 mmHg 40%
03:00 +22°C° 0 mm 3 mps 727 mmHg 45%
04:00 +21°C° 0 mm 3 mps 727 mmHg 49%
05:00 +23°C° 0 mm 2 mps 727 mmHg 54%
06:00 +23°C° 0 mm 2 mps 728 mmHg 58%
07:00 +24°C° 0 mm 2 mps 728 mmHg 63%
08:00 +26°C° 0 mm 2 mps 728 mmHg 56%
09:00 +27°C° 0 mm 2 mps 728 mmHg 50%
10:00 +29°C° 0 mm 2 mps 729 mmHg 43%
11:00 +30°C° 0 mm 3 mps 728 mmHg 40%
12:00 +31°C° 0 mm 3 mps 728 mmHg 36%
13:00 +33°C° 0 mm 4 mps 728 mmHg 33%
14:00 +33°C° 0 mm 4 mps 728 mmHg 34%
15:00 +32°C° 0 mm 4 mps 728 mmHg 35%
16:00 +32°C° 0 mm 5 mps 728 mmHg 36%
17:00 +30°C° 0.1 mm 5 mps 728 mmHg 37%
18:00 +29°C° 0.1 mm 5 mps 728 mmHg 38%
19:00 +28°C° 0.1 mm 6 mps 728 mmHg 39%
20:00 +26°C° 0 mm 6 mps 728 mmHg 41%
21:00 +24°C° 0 mm 6 mps 729 mmHg 43%
22:00 +22°C° 0 mm 6 mps 729 mmHg 45%
23:00 +21°C° 0 mm 5 mps 729 mmHg 49%

Tomorrow, 6 August, Friday

Time Temperature Precipitation Wind Pressure Humidity
00:00 +19°C° 0 mm 4 mps 729 mmHg 53%
01:00 +18°C° 0 mm 4 mps 729 mmHg 57%
02:00 +17°C° 0 mm 3 mps 729 mmHg 63%
03:00 +17°C° 0 mm 3 mps 729 mmHg 69%
04:00 +16°C° 0 mm 3 mps 729 mmHg 76%
05:00 +17°C° 0 mm 3 mps 730 mmHg 72%
06:00 +18°C° 0 mm 3 mps 730 mmHg 69%
07:00 +19°C° 0 mm 4 mps 730 mmHg 66%
08:00 +21°C° 0 mm 4 mps 730 mmHg 58%
09:00 +22°C° 0 mm 5 mps 730 mmHg 49%
10:00 +24°C° 0 mm 6 mps 731 mmHg 41%
11:00 +26°C° 0 mm 6 mps 731 mmHg 38%
12:00 +26°C° 0 mm 6 mps 730 mmHg 35%
13:00 +27°C° 0 mm 6 mps 730 mmHg 32%
14:00 +28°C° 0 mm 6 mps 730 mmHg 30%
15:00 +28°C° 0 mm 5 mps 730 mmHg 29%
16:00 +28°C° 0 mm 4 mps 730 mmHg 27%
17:00 +27°C° 0 mm 4 mps 730 mmHg 29%
18:00 +26°C° 0 mm 4 mps 731 mmHg 31%
19:00 +26°C° 0 mm 4 mps 731 mmHg 33%
20:00 +22°C° 0 mm 3 mps 731 mmHg 37%
21:00 +20°C° 0 mm 3 mps 731 mmHg 40%
22:00 +18°C° 0 mm 3 mps 731 mmHg 44%
23:00 +17°C° 0 mm 3 mps 731 mmHg 45%

Day after tomorrow, 7 August, Saturday

Time Temperature Precipitation Wind Pressure Humidity
00:00 +16°C° 0 mm 3 mps 731 mmHg 46%
01:00 +15°C° 0 mm 2 mps 731 mmHg 47%
02:00 +14°C° 0 mm 2 mps 731 mmHg 49%
03:00 +14°C° 0 mm 2 mps 731 mmHg 52%
04:00 +13°C° 0 mm 1 mps 732 mmHg 54%
05:00 +15°C° 0 mm 1 mps 732 mmHg 50%
06:00 +18°C° 0 mm 1 mps 732 mmHg 46%
07:00 +19°C° 0 mm 1 mps 733 mmHg 41%
08:00 +20°C° 0 mm 2 mps 733 mmHg 38%
09:00 +22°C° 0 mm 3 mps 733 mmHg 34%
10:00 +25°C° 0 mm 3 mps 733 mmHg 30%
11:00 +26°C° 0 mm 3 mps 733 mmHg 28%
12:00 +27°C° 0 mm 4 mps 733 mmHg 27%
13:00 +28°C° 0 mm 4 mps 733 mmHg 25%
14:00 +28°C° 0 mm 5 mps 733 mmHg 26%
15:00 +28°C° 0 mm 5 mps 733 mmHg 26%
16:00 +29°C° 0 mm 6 mps 733 mmHg 26%
17:00 +28°C° 0 mm 5 mps 733 mmHg 29%
18:00 +27°C° 0 mm 4 mps 733 mmHg 31%
19:00 +26°C° 0 mm 4 mps 733 mmHg 33%
20:00 +22°C° 0 mm 3 mps 733 mmHg 38%
21:00 +20°C° 0 mm 2 mps 733 mmHg 43%
22:00 +19°C° 0 mm 1 mps 733 mmHg 48%
23:00 +18°C° 0 mm 1 mps 733 mmHg 50%

8 August, Sunday

Time Temperature Precipitation Wind Pressure Humidity
00:00 +17°C° 0 mm 2 mps 733 mmHg 52%
01:00 +16°C° 0 mm 2 mps 733 mmHg 53%
02:00 +16°C° 0 mm 2 mps 733 mmHg 56%
03:00 +15°C° 0 mm 2 mps 733 mmHg 58%
04:00 +15°C° 0 mm 1 mps 734 mmHg 60%
05:00 +16°C° 0 mm 1 mps 734 mmHg 56%
06:00 +18°C° 0 mm 2 mps 734 mmHg 52%
07:00 +19°C° 0 mm 2 mps 735 mmHg 49%
08:00 +21°C° 0 mm 2 mps 735 mmHg 44%
09:00 +24°C° 0 mm 2 mps 735 mmHg 39%
10:00 +26°C° 0 mm 3 mps 735 mmHg 34%
11:00 +27°C° 0 mm 3 mps 735 mmHg 32%
12:00 +29°C° 0 mm 3 mps 735 mmHg 30%
13:00 +30°C° 0 mm 4 mps 735 mmHg 28%
14:00 +30°C° 0 mm 3 mps 734 mmHg 27%
15:00 +31°C° 0 mm 3 mps 734 mmHg 27%
16:00 +33°C° 0 mm 3 mps 734 mmHg 26%
17:00 +31°C° 0 mm 3 mps 734 mmHg 28%
18:00 +30°C° 0 mm 3 mps 734 mmHg 29%
19:00 +29°C° 0 mm 3 mps 734 mmHg 31%
20:00 +26°C° 0 mm 2 mps 734 mmHg 36%
21:00 +24°C° 0 mm 2 mps 734 mmHg 41%
22:00 +21°C° 0 mm 2 mps 734 mmHg 46%
23:00 +22°C° 0 mm 1 mps 734 mmHg 47%

9 August, Monday

Time Temperature Precipitation Wind Pressure Humidity
00:00 +21°C° 0 mm 1 mps 734 mmHg 49%
01:00 +21°C° 0 mm 1 mps 734 mmHg 50%
02:00 +21°C° 0 mm 1 mps 734 mmHg 50%
03:00 +20°C° 0 mm 1 mps 734 mmHg 51%
04:00 +20°C° 0 mm 1 mps 734 mmHg 51%
05:00 +21°C° 0 mm 2 mps 734 mmHg 48%
06:00 +23°C° 0 mm 2 mps 734 mmHg 44%
07:00 +24°C° 0 mm 2 mps 734 mmHg 40%
08:00 +26°C° 0 mm 3 mps 734 mmHg 37%
09:00 +28°C° 0 mm 4 mps 734 mmHg 34%
10:00 +29°C° 0 mm 4 mps 734 mmHg 31%
11:00 +32°C° 0.1 mm 4 mps 734 mmHg 29%
12:00 +33°C° 0.1 mm 4 mps 733 mmHg 26%
13:00 +35°C° 0.1 mm 4 mps 733 mmHg 24%
14:00 +35°C° 0 mm 4 mps 733 mmHg 22%
15:00 +36°C° 0 mm 5 mps 733 mmHg 21%
16:00 +36°C° 0 mm 5 mps 732 mmHg 20%
17:00 +35°C° 0 mm 5 mps 732 mmHg 21%
18:00 +34°C° 0 mm 4 mps 732 mmHg 23%
19:00 +33°C° 0 mm 4 mps 731 mmHg 24%
20:00 +32°C° 0 mm 4 mps 731 mmHg 26%
21:00 +29°C° 0 mm 4 mps 731 mmHg 28%
22:00 +28°C° 0 mm 4 mps 731 mmHg 30%
23:00 +27°C° 0 mm 3 mps 731 mmHg 33%

10 August, Tuesday

Time Temperature Precipitation Wind Pressure Humidity
00:00 +26°C° 0 mm 2 mps 731 mmHg 35%
01:00 +25°C° 0 mm 1 mps 731 mmHg 37%
02:00 +24°C° 0 mm 1 mps 731 mmHg 43%
03:00 +23°C° 0 mm 1 mps 731 mmHg 49%
04:00 +21°C° 0 mm 1 mps 731 mmHg 54%
05:00 +21°C° 0 mm 2 mps 731 mmHg 53%
06:00 +23°C° 0 mm 2 mps 731 mmHg 51%
07:00 +23°C° 0 mm 2 mps 731 mmHg 50%
08:00 +25°C° 0 mm 2 mps 731 mmHg 45%
09:00 +27°C° 0 mm 3 mps 732 mmHg 40%
10:00 +29°C° 0 mm 3 mps 732 mmHg 35%
11:00 +31°C° 0 mm 3 mps 731 mmHg 32%
12:00 +33°C° 0 mm 4 mps 731 mmHg 29%
13:00 +34°C° 0 mm 4 mps 731 mmHg 26%
14:00 +34°C° 0 mm 4 mps 731 mmHg 24%
15:00 +34°C° 0 mm 5 mps 731 mmHg 22%
16:00 +34°C° 0 mm 5 mps 731 mmHg 21%
17:00 +33°C° 0 mm 5 mps 731 mmHg 24%
18:00 +30°C° 0 mm 5 mps 731 mmHg 28%
19:00 +29°C° 0 mm 5 mps 731 mmHg 31%
20:00 +26°C° 0 mm 5 mps 731 mmHg 40%
21:00 +23°C° 0 mm 5 mps 731 mmHg 49%
22:00 +20°C° 0 mm 5 mps 731 mmHg 59%
23:00 +19°C° 0 mm 5 mps 731 mmHg 65%
Show more

We Need Your Consent

Meteoprog and our Service Providers may store and access personal data such as cookies, device identifiers or other similar technologies on your device and process such data to personalise content and ads, as well as provide social media features and to analyse the traffic.

  • Store and/or access information on your device

    Cookies, device identifiers or other information can be stored or accessed on your device for the purposes indicated above.

  • Personalised ads and content, ad and content measurement, audience insights, and products development

    Ads and content can be personalised based on a profile. More data can be added to better personalise ads and content. Ad and content performance can be measured. Insights about the audience who saw the ads and content can be derived. Such data can be used to develop or improve user’s experience, systems and software.

By clicking ‘I Agree’ you will allow the use of indicated cookies, device identifiers, web beacons or other similar technologies. Your settings can be changed in the browser on your device.

For certain purposes, legitimate interests may be relied on, rather than consent. You can read more about this in our Privacy and Cookie Policy.